Location: Cheching
(60.0667°N, 164.2167°W)
Time: 10:50:03
(UTC+00:00)

NOAA 19 - Pass Details

Date: 24 January 2021
Orbit: 840 x 862 km, 99.2° (Epoch: 26 February)

Event Time Altitude Azimuth Distance (km) Brightness Sun altitude
Rises 18:26:45 0° 19° (NNE) 3,433 8.3 -7.2°
Reaches altitude 10° 18:29:07 10° 19° (NNE) 2,490 7.6 -6.9°
Maximum altitude 18:34:40 87° 294° (WNW) 856 5.3 -6.3°
Drops below altitude 10° 18:40:08 10° 203° (SSW) 2,462 7.7 -5.7°
Sets 18:42:29 0° 203° (SSW) 3,392 8.4 -5.5°
